This is the latest recevied weather packets stored in our database for station/object K6POO-1. If no packets are shown the sender has not sent any weather packets the latest 10 day(s).
| Time | Temp. | Humidity | Pressure | Rain* | Wind** | Luminosity | Snow |
|---|---|---|---|---|---|---|---|
| 1778086224 | 16.11° C | 74% | 1021.1 hPa | 0 mm | - | 469 W/m² | - |
| 1778085921 | 16.11° C | 73% | 1020.8 hPa | 0 mm | - | 245 W/m² | - |
| 1778085619 | 16.67° C | 71% | 1021 hPa | 0 mm | - | 325 W/m² | - |
| 1778085315 | 16.11° C | 73% | 1021 hPa | 0 mm | - | 676 W/m² | - |
| 1778085010 | 15.56° C | 74% | 1021.2 hPa | 0 mm | - | 369 W/m² | - |
| 1778084707 | 15.56° C | 74% | 1021.1 hPa | 0 mm | - | 327 W/m² | - |
| 1778084403 | 15.56° C | 75% | 1021 hPa | 0 mm | - | 298 W/m² | - |
| 1778084101 | 15.56° C | 76% | 1021 hPa | 0 mm | - | 255 W/m² | - |
| 1778083798 | 15° C | 77% | 1020.9 hPa | 0 mm | - | 291 W/m² | - |
| 1778083495 | 15° C | 77% | 1021 hPa | 0 mm | - | 267 W/m² | - |
| 1778083193 | 15° C | 77% | 1021 hPa | 0 mm | - | 218 W/m² | - |
| 1778082891 | 15° C | 78% | 1021 hPa | 0 mm | - | 212 W/m² | - |
| 1778081782 | 14.44° C | 80% | 1021 hPa | 0 mm | - | 147 W/m² | - |
| 1778081480 | 14.44° C | 80% | 1020.8 hPa | 0 mm | - | 120 W/m² | - |
| 1778081177 | 14.44° C | 80% | 1021.1 hPa | 0 mm | - | 105 W/m² | - |
| 1778080874 | 14.44° C | 81% | 1020.9 hPa | 0 mm | - | 116 W/m² | - |
| 1778080573 | 14.44° C | 82% | 1020.9 hPa | 0 mm | - | 185 W/m² | - |
| 1778080269 | 14.44° C | 82% | 1020.9 hPa | 0 mm | - | 132 W/m² | - |
| 1778079966 | 13.89° C | 82% | 1021 hPa | 0 mm | - | 107 W/m² | - |
| 1778079663 | 13.89° C | 82% | 1020.8 hPa | 0 mm | - | 110 W/m² | - |
| 1778079360 | 13.89° C | 81% | 1020.9 hPa | 0 mm | - | 113 W/m² | - |
| 1778079057 | 13.89° C | 82% | 1020.8 hPa | 0 mm | - | 120 W/m² | - |
| 1778078753 | 13.89° C | 82% | 1020.8 hPa | 0 mm | - | 119 W/m² | - |
| 1778078451 | 13.89° C | 82% | 1020.9 hPa | 0 mm | - | 116 W/m² | - |
| 1778078149 | 13.89° C | 82% | 1020.9 hPa | 0 mm | - | 100 W/m² | - |
* Rain latest hour (hover to see other rain measurements)
** Current wind speed in m/s (hover to see current wind gust speed)